When you browse on this site, cookies collect data to enhance your experience and personalize the content and advertising you see.
Visit our Privacy Policy to learn more. By continuing to use the site, you agree to this use of cookies and data.
  • In United Kingdom
  • List of Countries
  • For 7 days
  • Water Temperature
  • Satellite Maps
  • Weather Map
  • Weather Widgets
  • user-avatar
    Login

    Hourly Weather Mingora

    Today, 20 July, Saturday

    Time Temperature Precipitation Wind Pressure Humidity
    00:00 +27°C° 0.1 mm 1 mps 671 mmHg 75%
    01:00 +27°C° 0.1 mm 1 mps 671 mmHg 75%
    02:00 +26°C° 0.1 mm 1 mps 671 mmHg 75%
    03:00 +26°C° 0.3 mm 1 mps 671 mmHg 77%
    04:00 +26°C° 0.3 mm 1 mps 671 mmHg 78%
    05:00 +25°C° 0 mm 1 mps 671 mmHg 78%
    06:00 +25°C° 0.1 mm 0 mps 672 mmHg 74%
    07:00 +26°C° 0.1 mm 0 mps 672 mmHg 71%
    08:00 +27°C° 0.1 mm 0 mps 673 mmHg 67%
    09:00 +30°C° 0.2 mm 1 mps 672 mmHg 64%
    10:00 +31°C° 0.2 mm 1 mps 672 mmHg 61%
    11:00 +32°C° 0.2 mm 2 mps 672 mmHg 58%
    12:00 +32°C° 0.2 mm 2 mps 672 mmHg 57%
    13:00 +34°C° 0.2 mm 2 mps 672 mmHg 56%
    14:00 +34°C° 0.2 mm 2 mps 672 mmHg 55%
    15:00 +34°C° 0.4 mm 2 mps 671 mmHg 55%
    16:00 +34°C° 0.4 mm 2 mps 671 mmHg 55%
    17:00 +33°C° 0.4 mm 1 mps 670 mmHg 55%
    18:00 +32°C° 0 mm 1 mps 670 mmHg 59%
    19:00 +31°C° 0 mm 1 mps 670 mmHg 63%
    20:00 +27°C° 0 mm 0 mps 670 mmHg 67%
    21:00 +27°C° 0.1 mm 0 mps 670 mmHg 68%
    22:00 +28°C° 0.1 mm 1 mps 670 mmHg 69%
    23:00 +28°C° 0.1 mm 1 mps 670 mmHg 70%

    Tomorrow, 21 July, Sunday

    Time Temperature Precipitation Wind Pressure Humidity
    00:00 +28°C° 0 mm 1 mps 670 mmHg 71%
    01:00 +28°C° 0 mm 1 mps 670 mmHg 71%
    02:00 +28°C° 0 mm 1 mps 670 mmHg 71%
    03:00 +28°C° 0 mm 1 mps 670 mmHg 71%
    04:00 +28°C° 0 mm 1 mps 670 mmHg 71%
    05:00 +28°C° 0 mm 1 mps 670 mmHg 70%
    06:00 +29°C° 0.1 mm 1 mps 671 mmHg 68%
    07:00 +29°C° 0.1 mm 1 mps 671 mmHg 65%
    08:00 +28°C° 0.1 mm 0 mps 671 mmHg 63%
    09:00 +31°C° 0.2 mm 1 mps 671 mmHg 60%
    10:00 +32°C° 0.2 mm 2 mps 671 mmHg 57%
    11:00 +34°C° 0.2 mm 2 mps 672 mmHg 54%
    12:00 +34°C° 0.2 mm 2 mps 671 mmHg 52%
    13:00 +35°C° 0.2 mm 2 mps 671 mmHg 51%
    14:00 +35°C° 0.2 mm 2 mps 671 mmHg 50%
    15:00 +35°C° 0.1 mm 2 mps 670 mmHg 50%
    16:00 +34°C° 0.1 mm 1 mps 670 mmHg 50%
    17:00 +34°C° 0.1 mm 1 mps 670 mmHg 50%
    18:00 +33°C° 0 mm 1 mps 670 mmHg 54%
    19:00 +31°C° 0 mm 1 mps 670 mmHg 58%
    20:00 +28°C° 0 mm 0 mps 670 mmHg 62%
    21:00 +30°C° 0 mm 1 mps 670 mmHg 63%
    22:00 +29°C° 0 mm 1 mps 670 mmHg 65%
    23:00 +29°C° 0 mm 1 mps 670 mmHg 66%

    Day after tomorrow, 22 July, Monday

    Time Temperature Precipitation Wind Pressure Humidity
    00:00 +28°C° 0.9 mm 1 mps 670 mmHg 69%
    01:00 +28°C° 0.9 mm 2 mps 669 mmHg 71%
    02:00 +28°C° 0.9 mm 2 mps 669 mmHg 74%
    03:00 +28°C° 0.2 mm 2 mps 669 mmHg 73%
    04:00 +28°C° 0.2 mm 2 mps 669 mmHg 73%
    05:00 +28°C° 0.2 mm 2 mps 669 mmHg 72%
    06:00 +29°C° 0 mm 1 mps 670 mmHg 69%
    07:00 +30°C° 0 mm 1 mps 670 mmHg 65%
    08:00 +31°C° 0 mm 1 mps 670 mmHg 62%
    09:00 +32°C° 0.3 mm 1 mps 670 mmHg 58%
    10:00 +34°C° 0.3 mm 2 mps 670 mmHg 54%
    11:00 +35°C° 0.3 mm 2 mps 670 mmHg 50%
    12:00 +35°C° 0.4 mm 2 mps 670 mmHg 50%
    13:00 +36°C° 0.4 mm 2 mps 670 mmHg 49%
    14:00 +36°C° 0.4 mm 2 mps 669 mmHg 49%
    15:00 +36°C° 0.1 mm 2 mps 669 mmHg 49%
    16:00 +36°C° 0.1 mm 2 mps 669 mmHg 48%
    17:00 +35°C° 0.1 mm 1 mps 668 mmHg 48%
    18:00 +34°C° 0 mm 1 mps 668 mmHg 52%
    19:00 +32°C° 0 mm 1 mps 668 mmHg 56%
    20:00 +31°C° 0 mm 1 mps 668 mmHg 61%
    21:00 +31°C° 0.1 mm 1 mps 668 mmHg 62%
    22:00 +30°C° 0.1 mm 1 mps 669 mmHg 64%
    23:00 +29°C° 0.1 mm 2 mps 669 mmHg 65%

    23 July, Tuesday

    Time Temperature Precipitation Wind Pressure Humidity
    00:00 +29°C° 0 mm 2 mps 669 mmHg 66%
    01:00 +29°C° 0 mm 2 mps 668 mmHg 66%
    02:00 +29°C° 0 mm 2 mps 668 mmHg 67%
    03:00 +29°C° 0 mm 2 mps 668 mmHg 66%
    04:00 +29°C° 0 mm 1 mps 668 mmHg 66%
    05:00 +29°C° 0 mm 1 mps 669 mmHg 65%
    06:00 +30°C° 0 mm 1 mps 669 mmHg 62%
    07:00 +31°C° 0 mm 1 mps 670 mmHg 59%
    08:00 +30°C° 0 mm 0 mps 670 mmHg 56%
    09:00 +33°C° 0 mm 1 mps 670 mmHg 53%
    10:00 +35°C° 0 mm 2 mps 670 mmHg 50%
    11:00 +36°C° 0 mm 2 mps 670 mmHg 46%
    12:00 +37°C° 0.1 mm 2 mps 670 mmHg 46%
    13:00 +37°C° 0.1 mm 2 mps 669 mmHg 45%
    14:00 +37°C° 0.1 mm 2 mps 669 mmHg 45%
    15:00 +37°C° 0 mm 2 mps 669 mmHg 45%
    16:00 +37°C° 0 mm 2 mps 668 mmHg 45%
    17:00 +37°C° 0 mm 2 mps 668 mmHg 45%
    18:00 +35°C° 0 mm 1 mps 668 mmHg 49%
    19:00 +33°C° 0 mm 1 mps 668 mmHg 54%
    20:00 +32°C° 0 mm 1 mps 668 mmHg 58%
    21:00 +31°C° 0.1 mm 1 mps 668 mmHg 59%
    22:00 +31°C° 0.1 mm 1 mps 668 mmHg 60%
    23:00 +30°C° 0.1 mm 2 mps 668 mmHg 61%

    24 July, Wednesday

    Time Temperature Precipitation Wind Pressure Humidity
    00:00 +30°C° 0 mm 2 mps 668 mmHg 62%
    01:00 +30°C° 0 mm 2 mps 668 mmHg 62%
    02:00 +29°C° 0 mm 2 mps 668 mmHg 63%
    03:00 +29°C° 0.1 mm 1 mps 668 mmHg 63%
    04:00 +29°C° 0.1 mm 1 mps 668 mmHg 63%
    05:00 +29°C° 0.1 mm 1 mps 668 mmHg 63%
    06:00 +30°C° 0.2 mm 1 mps 668 mmHg 60%
    07:00 +31°C° 0.2 mm 1 mps 669 mmHg 58%
    08:00 +33°C° 0.2 mm 1 mps 669 mmHg 56%
    09:00 +34°C° 0.4 mm 1 mps 669 mmHg 52%
    10:00 +36°C° 0.4 mm 2 mps 669 mmHg 49%
    11:00 +37°C° 0.4 mm 2 mps 669 mmHg 46%
    12:00 +37°C° 1 mm 2 mps 669 mmHg 46%
    13:00 +37°C° 1 mm 2 mps 668 mmHg 46%
    14:00 +37°C° 1 mm 2 mps 668 mmHg 46%
    15:00 +37°C° 0.3 mm 2 mps 667 mmHg 46%
    16:00 +37°C° 0.3 mm 2 mps 667 mmHg 46%
    17:00 +37°C° 0.3 mm 2 mps 667 mmHg 46%
    18:00 +36°C° 0.6 mm 2 mps 667 mmHg 50%
    19:00 +33°C° 0.6 mm 1 mps 667 mmHg 54%
    20:00 +32°C° 0.6 mm 1 mps 667 mmHg 58%
    21:00 +31°C° 0.4 mm 1 mps 667 mmHg 60%
    22:00 +31°C° 0.4 mm 2 mps 667 mmHg 62%
    23:00 +30°C° 0.4 mm 2 mps 668 mmHg 63%

    25 July, Thursday

    Time Temperature Precipitation Wind Pressure Humidity
    00:00 +29°C° 2 mm 1 mps 667 mmHg 68%
    01:00 +29°C° 2 mm 1 mps 667 mmHg 73%
    02:00 +28°C° 2 mm 1 mps 667 mmHg 78%
    03:00 +28°C° 1.2 mm 1 mps 667 mmHg 79%
    04:00 +27°C° 1.2 mm 1 mps 667 mmHg 81%
    05:00 +27°C° 1.2 mm 1 mps 667 mmHg 83%
    06:00 +28°C° 0.5 mm 1 mps 668 mmHg 81%
    07:00 +28°C° 0.5 mm 1 mps 668 mmHg 79%
    08:00 +28°C° 0.5 mm 1 mps 668 mmHg 77%
    09:00 +29°C° 1.5 mm 1 mps 669 mmHg 76%
    10:00 +29°C° 1.5 mm 2 mps 669 mmHg 75%
    11:00 +30°C° 1.5 mm 2 mps 669 mmHg 73%
    12:00 +30°C° 1.5 mm 2 mps 668 mmHg 71%
    13:00 +31°C° 1.5 mm 2 mps 668 mmHg 69%
    14:00 +31°C° 1.5 mm 2 mps 668 mmHg 66%
    15:00 +31°C° 1.2 mm 2 mps 668 mmHg 66%
    16:00 +31°C° 1.2 mm 1 mps 668 mmHg 66%
    17:00 +31°C° 1.2 mm 1 mps 667 mmHg 66%
    18:00 +30°C° 0.5 mm 1 mps 667 mmHg 70%
    19:00 +29°C° 0.5 mm 1 mps 667 mmHg 74%
    20:00 +28°C° 0.5 mm 1 mps 667 mmHg 78%
    21:00 +27°C° 0.1 mm 1 mps 667 mmHg 78%
    22:00 +27°C° 0.1 mm 1 mps 668 mmHg 78%
    23:00 +27°C° 0.1 mm 2 mps 668 mmHg 77%
    Show more